Location: ??????
(55.6500°N, 37.8000°E)
Time: 15:07:39
(UTC+00:00)

Cosmos 1092 Rocket - Visible Passes

Search period start: 16 July 2024 00:00
Search period end: 26 July 2024 00:00
Orbit: 953 x 995 km, 83.0° (Epoch: 15 July)

Date Brightness Start Highest point End Pass type
(mag) Time Alt. Az. Time Alt. Az. Time Alt. Az.
16 Jul 6.7 22:02:43 10° NNE 22:05:15 13° NE 22:07:47 10° ENE visible
16 Jul 5.2 23:46:34 10° N 23:52:28 44° ENE 23:58:18 10° SE visible
17 Jul 6.5 22:26:54 10° N 22:31:02 18° NE 22:35:07 10° E visible
18 Jul 4.4 00:11:31 10° N 00:17:40 68° ENE 00:23:46 10° SSE visible
18 Jul 6.0 22:51:30 10° N 22:56:37 26° ENE 23:01:42 10° ESE visible
19 Jul 6.8 21:32:57 10° NNE 21:34:40 11° NE 21:36:24 10° ENE visible
19 Jul 5.3 23:16:18 10° N 23:22:03 39° ENE 23:27:45 10° SE visible
20 Jul 6.4 21:56:46 10° N 22:00:30 16° NE 22:04:12 10° E visible
20 Jul 4.6 23:41:13 10° N 23:47:19 60° ENE 23:53:22 10° SSE visible
21 Jul 6.1 22:21:17 10° N 22:26:09 23° ENE 22:30:58 10° ESE visible
22 Jul 4.0 00:06:12 10° NNW 00:12:25 90° W 00:18:34 10° S visible
22 Jul 5.5 22:46:02 10° N 22:51:38 34° ENE 22:57:10 10° SE visible
23 Jul 6.4 21:26:41 10° NNE 21:29:57 14° NE 21:33:13 10° E visible
23 Jul 4.7 23:10:55 10° N 23:16:56 52° ENE 23:22:55 10° SSE visible
24 Jul 6.2 21:51:06 10° N 21:55:39 21° NE 22:00:12 10° ESE visible
24 Jul 4.1 23:35:54 10° N 23:42:05 80° ENE 23:48:14 10° SSE visible
25 Jul 5.6 22:15:47 10° N 22:21:11 31° ENE 22:26:33 10° ESE visible
